Home   Weather   West Palm Beach   Past weeks

Flag for USA Past Weather in West Palm Beach, Florida, USA — Yesterday and Last 2 Weeks

Now
62 °F

Passing clouds.


Feels Like: 62 °F
Forecast: 67 / 80 °F
Wind: No wind

Location: Palm Beach International Airport

Current Time: Jan 18, 2017 at 7:13:38 am

Latest Report: Jan 18, 2017 at 5:53 am


Visibility: 10 mi

Pressure: 30.16 "Hg

Humidity: 90%

Dew Point: 59 °F

Location of West Palm BeachLocation

Past Weather in West Palm Beach — Graph

°F

West Palm Beach Temperature Yesterday

Maximum temperature yesterday: 78 °F (at 11:53 am)
Minimum temperature yesterday: 65 °F (at 11:53 pm)
Average temperature yesterday: 74 °F

High & Low Weather Summary for the Past Weeks

 TemperatureHumidityPressure
High86 °F (Jan 3, 3:53 pm)97% (Jan 4, 12:53 am)30.53 "Hg (Jan 4, 12:53 am)
Low45 °F (Jan 8, 1:53 am)38% (Jan 10, 12:53 pm)29.82 "Hg (Jan 4, 3:53 pm)
Average70 °F67%30.20 "Hg
* Reported Jan 3 5:01 am — Jan 18 5:53 am, West Palm Beach, Weather by CustomWeather, © 2017

Note: Actual official high and low records may vary slightly from our data, if they occured in-between our weather recording intervals... More about our weather records

Advertising

West Palm Beach Weather History for the Previous 24 Hours

Scroll right to see more
 ConditionsComfort  
Time TempWeatherWind HumidityBarometerVisibility
5:53 am
Wed, Jan 18
62 °FPassing clouds.No wind90%30.16 "Hg10 mi
4:53 am61 °FPassing clouds.No wind93%30.17 "Hg10 mi
3:53 am61 °FPassing clouds.No wind93%30.17 "Hg10 mi
2:53 am64 °FPassing clouds.No wind87%30.18 "Hg10 mi
1:53 am64 °FPassing clouds.No wind87%30.20 "Hg10 mi
12:53 am64 °FPassing clouds.No wind87%30.22 "Hg10 mi
11:53 pm
Tue, Jan 17
65 °FPassing clouds.No wind85%30.24 "Hg10 mi
10:53 pm68 °FPassing clouds.No wind76%30.24 "Hg10 mi
9:53 pm71 °FPassing clouds.5 mph68%30.23 "Hg10 mi
8:53 pm72 °FPassing clouds.7 mph68%30.23 "Hg10 mi
7:53 pm72 °FPassing clouds.5 mph64%30.23 "Hg10 mi
6:53 pm73 °FPassing clouds.6 mph62%30.22 "Hg10 mi
5:53 pm74 °FPartly cloudy.8 mph57%30.21 "Hg10 mi
4:53 pm75 °FBroken clouds.9 mph60%30.21 "Hg10 mi
3:53 pm76 °FBroken clouds.9 mph54%30.20 "Hg10 mi
2:53 pm78 °FBroken clouds.13 mph48%30.19 "Hg10 mi
1:53 pm78 °FBroken clouds.10 mph50%30.20 "Hg10 mi
12:53 pm78 °FScattered clouds.14 mph54%30.22 "Hg10 mi
11:53 am78 °FBroken clouds.14 mph56%30.24 "Hg10 mi
10:53 am76 °FPartly sunny.15 mph62%30.26 "Hg10 mi
10:11 am76 °FPartly sunny.13 mph64%30.27 "Hg10 mi
9:53 am73 °FLight rain. Partly sunny.8 mph71%30.26 "Hg10 mi
8:53 am76 °FBroken clouds.10 mph60%30.24 "Hg10 mi
7:53 am73 °FBroken clouds.9 mph62%30.23 "Hg10 mi
Weather by CustomWeather, © 2017

See weather overviewHow to use our weather pages